When you browse on this site, cookies collect data to enhance your experience and personalize the content and advertising you see.
Visit our Privacy Policy to learn more. By continuing to use the site, you agree to this use of cookies and data.
  • In Czech Republic
  • List of Countries
  • For 7 days
  • Water Temperature
  • Satellite Maps
  • Weather Map
  • Weather Widgets
  • user-avatar
    Login

    Hourly Weather Rangpur

    Today, 16 November, Friday

    Time Temperature Precipitation Wind Pressure Humidity
    00:00 +24°C° 0 mm 1 mps 756 mmHg 62%
    01:00 +23°C° 0 mm 1 mps 756 mmHg 64%
    02:00 +23°C° 0 mm 1 mps 756 mmHg 66%
    03:00 +22°C° 0 mm 1 mps 756 mmHg 68%
    04:00 +22°C° 0 mm 1 mps 756 mmHg 70%
    05:00 +22°C° 0 mm 1 mps 756 mmHg 72%
    06:00 +21°C° 0 mm 1 mps 756 mmHg 81%
    07:00 +23°C° 0 mm 1 mps 756 mmHg 75%
    08:00 +24°C° 0 mm 2 mps 756 mmHg 69%
    09:00 +26°C° 0 mm 2 mps 756 mmHg 63%
    10:00 +27°C° 0 mm 3 mps 756 mmHg 56%
    11:00 +29°C° 0 mm 3 mps 756 mmHg 48%
    12:00 +32°C° 0 mm 4 mps 756 mmHg 40%
    13:00 +32°C° 0 mm 4 mps 755 mmHg 39%
    14:00 +32°C° 0 mm 5 mps 755 mmHg 38%
    15:00 +32°C° 0 mm 5 mps 755 mmHg 36%
    16:00 +29°C° 0 mm 4 mps 755 mmHg 41%
    17:00 +28°C° 0 mm 3 mps 755 mmHg 45%
    18:00 +26°C° 0 mm 2 mps 755 mmHg 50%
    19:00 +25°C° 0 mm 2 mps 755 mmHg 52%
    20:00 +25°C° 0 mm 2 mps 755 mmHg 54%
    21:00 +24°C° 0 mm 1 mps 756 mmHg 56%
    22:00 +24°C° 0 mm 1 mps 756 mmHg 58%
    23:00 +23°C° 0 mm 1 mps 756 mmHg 60%

    Tomorrow, 17 November, Saturday

    Time Temperature Precipitation Wind Pressure Humidity
    00:00 +23°C° 0 mm 1 mps 756 mmHg 62%
    01:00 +22°C° 0 mm 1 mps 756 mmHg 64%
    02:00 +22°C° 0 mm 1 mps 756 mmHg 66%
    03:00 +21°C° 0 mm 1 mps 756 mmHg 68%
    04:00 +21°C° 0 mm 1 mps 756 mmHg 70%
    05:00 +21°C° 0 mm 1 mps 756 mmHg 71%
    06:00 +20°C° 0 mm 1 mps 756 mmHg 73%
    07:00 +22°C° 0 mm 1 mps 757 mmHg 69%
    08:00 +23°C° 0 mm 2 mps 757 mmHg 65%
    09:00 +25°C° 0 mm 2 mps 758 mmHg 61%
    10:00 +26°C° 0 mm 2 mps 757 mmHg 56%
    11:00 +28°C° 0 mm 2 mps 757 mmHg 50%
    12:00 +29°C° 0 mm 2 mps 757 mmHg 44%
    13:00 +30°C° 0 mm 2 mps 756 mmHg 42%
    14:00 +30°C° 0 mm 3 mps 755 mmHg 39%
    15:00 +30°C° 0 mm 3 mps 755 mmHg 36%
    16:00 +29°C° 0 mm 3 mps 755 mmHg 39%
    17:00 +27°C° 0 mm 2 mps 755 mmHg 41%
    18:00 +25°C° 0 mm 2 mps 755 mmHg 44%
    19:00 +24°C° 0 mm 2 mps 755 mmHg 45%
    20:00 +24°C° 0 mm 2 mps 756 mmHg 46%
    21:00 +23°C° 0 mm 2 mps 756 mmHg 47%
    22:00 +21°C° 0 mm 2 mps 757 mmHg 51%
    23:00 +20°C° 0 mm 2 mps 757 mmHg 55%

    Day after tomorrow, 18 November, Sunday

    Time Temperature Precipitation Wind Pressure Humidity
    00:00 +20°C° 0 mm 2 mps 757 mmHg 60%
    01:00 +19°C° 0 mm 2 mps 757 mmHg 63%
    02:00 +19°C° 0 mm 2 mps 757 mmHg 67%
    03:00 +19°C° 0 mm 2 mps 757 mmHg 71%
    04:00 +18°C° 0 mm 2 mps 757 mmHg 73%
    05:00 +18°C° 0 mm 3 mps 757 mmHg 75%
    06:00 +18°C° 0 mm 3 mps 757 mmHg 77%
    07:00 +19°C° 0 mm 3 mps 758 mmHg 75%
    08:00 +21°C° 0 mm 4 mps 759 mmHg 72%
    09:00 +22°C° 0 mm 4 mps 759 mmHg 70%
    10:00 +25°C° 0 mm 4 mps 759 mmHg 64%
    11:00 +26°C° 0 mm 4 mps 758 mmHg 57%
    12:00 +28°C° 0 mm 3 mps 758 mmHg 51%
    13:00 +28°C° 0 mm 3 mps 757 mmHg 48%
    14:00 +28°C° 0 mm 2 mps 757 mmHg 44%
    15:00 +29°C° 0 mm 1 mps 756 mmHg 41%
    16:00 +27°C° 0 mm 1 mps 756 mmHg 46%
    17:00 +26°C° 0 mm 1 mps 756 mmHg 51%
    18:00 +24°C° 0 mm 1 mps 757 mmHg 56%
    19:00 +24°C° 0 mm 2 mps 757 mmHg 60%
    20:00 +23°C° 0 mm 2 mps 758 mmHg 65%
    21:00 +21°C° 0 mm 2 mps 758 mmHg 69%
    22:00 +21°C° 0 mm 2 mps 758 mmHg 72%
    23:00 +20°C° 0 mm 2 mps 758 mmHg 75%

    19 November, Monday

    Time Temperature Precipitation Wind Pressure Humidity
    00:00 +20°C° 0 mm 3 mps 758 mmHg 78%
    01:00 +19°C° 0 mm 3 mps 758 mmHg 78%
    02:00 +19°C° 0 mm 3 mps 758 mmHg 78%
    03:00 +19°C° 0 mm 2 mps 757 mmHg 79%
    04:00 +18°C° 0 mm 2 mps 758 mmHg 78%
    05:00 +18°C° 0 mm 3 mps 758 mmHg 78%
    06:00 +18°C° 0 mm 3 mps 758 mmHg 77%
    07:00 +19°C° 0 mm 3 mps 759 mmHg 72%
    08:00 +21°C° 0 mm 3 mps 760 mmHg 67%
    09:00 +22°C° 0 mm 4 mps 760 mmHg 62%
    10:00 +25°C° 0 mm 3 mps 760 mmHg 58%
    11:00 +26°C° 0 mm 3 mps 759 mmHg 53%
    12:00 +27°C° 0 mm 3 mps 759 mmHg 48%
    13:00 +28°C° 0 mm 2 mps 758 mmHg 46%
    14:00 +28°C° 0 mm 2 mps 758 mmHg 44%
    15:00 +28°C° 0 mm 1 mps 757 mmHg 43%
    16:00 +27°C° 0 mm 1 mps 757 mmHg 47%
    17:00 +25°C° 0 mm 1 mps 757 mmHg 51%
    18:00 +24°C° 0 mm 1 mps 757 mmHg 55%
    19:00 +23°C° 0 mm 1 mps 758 mmHg 58%
    20:00 +23°C° 0 mm 2 mps 758 mmHg 60%
    21:00 +21°C° 0 mm 2 mps 759 mmHg 63%
    22:00 +21°C° 0 mm 2 mps 759 mmHg 65%
    23:00 +20°C° 0 mm 2 mps 759 mmHg 68%

    20 November, Tuesday

    Time Temperature Precipitation Wind Pressure Humidity
    00:00 +20°C° 0 mm 2 mps 758 mmHg 70%
    01:00 +19°C° 0 mm 2 mps 758 mmHg 71%
    02:00 +19°C° 0 mm 2 mps 758 mmHg 71%
    03:00 +19°C° 0 mm 2 mps 758 mmHg 72%
    04:00 +18°C° 0 mm 2 mps 758 mmHg 72%
    05:00 +18°C° 0 mm 2 mps 758 mmHg 72%
    06:00 +18°C° 0 mm 2 mps 758 mmHg 71%
    07:00 +19°C° 0 mm 2 mps 759 mmHg 67%
    08:00 +21°C° 0 mm 3 mps 759 mmHg 63%
    09:00 +22°C° 0 mm 3 mps 760 mmHg 59%
    10:00 +25°C° 0 mm 3 mps 759 mmHg 55%
    11:00 +26°C° 0 mm 2 mps 759 mmHg 51%
    12:00 +27°C° 0 mm 2 mps 758 mmHg 47%
    13:00 +28°C° 0 mm 2 mps 758 mmHg 45%
    14:00 +28°C° 0 mm 1 mps 757 mmHg 43%
    15:00 +28°C° 0 mm 1 mps 756 mmHg 42%
    16:00 +27°C° 0 mm 1 mps 757 mmHg 46%
    17:00 +26°C° 0 mm 1 mps 757 mmHg 50%
    18:00 +24°C° 0 mm 1 mps 757 mmHg 54%
    19:00 +24°C° 0 mm 1 mps 757 mmHg 56%
    20:00 +23°C° 0 mm 1 mps 758 mmHg 59%
    21:00 +23°C° 0 mm 2 mps 758 mmHg 61%
    22:00 +21°C° 0 mm 2 mps 758 mmHg 63%
    23:00 +21°C° 0 mm 2 mps 758 mmHg 66%

    21 November, Wednesday

    Time Temperature Precipitation Wind Pressure Humidity
    00:00 +20°C° 0 mm 2 mps 758 mmHg 68%
    01:00 +20°C° 0 mm 2 mps 758 mmHg 69%
    02:00 +19°C° 0 mm 2 mps 758 mmHg 71%
    03:00 +19°C° 0 mm 2 mps 758 mmHg 72%
    04:00 +18°C° 0 mm 2 mps 758 mmHg 72%
    05:00 +18°C° 0 mm 2 mps 758 mmHg 73%
    06:00 +18°C° 0 mm 2 mps 758 mmHg 73%
    07:00 +19°C° 0 mm 3 mps 759 mmHg 68%
    08:00 +21°C° 0 mm 3 mps 759 mmHg 63%
    09:00 +22°C° 0 mm 3 mps 760 mmHg 59%
    10:00 +25°C° 0 mm 3 mps 759 mmHg 54%
    11:00 +26°C° 0 mm 3 mps 759 mmHg 49%
    12:00 +28°C° 0 mm 2 mps 758 mmHg 45%
    13:00 +28°C° 0 mm 2 mps 758 mmHg 43%
    14:00 +28°C° 0 mm 2 mps 757 mmHg 42%
    15:00 +28°C° 0 mm 1 mps 757 mmHg 40%
    16:00 +27°C° 0 mm 2 mps 757 mmHg 45%
    17:00 +26°C° 0 mm 2 mps 757 mmHg 49%
    18:00 +24°C° 0 mm 2 mps 758 mmHg 54%
    19:00 +23°C° 0 mm 2 mps 758 mmHg 57%
    20:00 +23°C° 0 mm 2 mps 759 mmHg 60%
    21:00 +21°C° 0 mm 2 mps 759 mmHg 63%
    22:00 +21°C° 0 mm 2 mps 759 mmHg 65%
    23:00 +20°C° 0 mm 2 mps 759 mmHg 66%
    Show more